Home > Weather > Gävle > Past weeks

Flag for Sweden Past Weather in Gävle, Sweden — Yesterday and Last 2 Weeks

Now
49 °F

Fog.


Feels Like: 49 °F
Forecast: 60 / 67 °F
Wind: No wind

Location: Films Kyrkby

Current Time: Aug 24, 2016 at 8:32:53 AM

Latest Report: Aug 24, 2016 at 7:00 AM


Visibility: 4 mi

Pressure: 30.26 "Hg

Humidity: 100%

Dew Point: 49 °F

Location of GävleLocation

Past Weather in Gävle — Graph

°F

Gävle Temperature Yesterday

Maximum temperature yesterday: 74 °F (at 3:00 PM)
Minimum temperature yesterday: 51 °F (at 11:00 PM)
Average temperature yesterday: 62 °F

High & Low Weather Summary for the Past Weeks

 TemperatureHumidityPressure
High74 °F (Aug 23, 3:00 PM)100% (Aug 12, 6:00 AM)30.26 "Hg (Aug 12, 6:00 AM)
Low38 °F (Aug 12, 5:00 AM)35% (Aug 12, 5:00 PM)29.47 "Hg (Aug 9, 7:00 AM)
Average57 °F81%29.89 "Hg
* Reported Aug 9 7:00 AM — Aug 24 7:00 AM, Gävle, Weather by CustomWeather, © 2016

Note: Actual official high and low records may vary slightly from our data, if they occured in-between our weather recording intervals... More about our weather records

Advertising

Gävle Weather History for the Previous 24 Hours

Scroll right to see more
 ConditionsComfort  
Time TempWeatherWind HumidityBarometerVisibility
7:00 AM
Wed, Aug 24
49 °FFog.No wind100%30.26 "Hg4 mi
6:00 AM44 °FFog.No wind100%30.25 "Hg2 mi
5:00 AM45 °FFog.No wind100%30.25 "Hg2 mi
4:00 AM46 °FPassing clouds.No wind100%30.24 "Hg7 mi
3:00 AM46 °FPassing clouds.No wind100%30.24 "Hg8 mi
2:00 AM47 °FFog.No wind99%30.23 "Hg1 mi
1:00 AM49 °FClear.No wind100%30.22 "Hg11 mi
12:00 AM51 °FPassing clouds.No wind100%30.22 "Hg10 mi
11:00 PM
Tue, Aug 23
51 °FClear.No wind99%30.19 "Hg10 mi
10:00 PM54 °FClear.No wind98%30.19 "Hg16 mi
9:00 PM57 °FClear.No wind90%30.18 "Hg31 mi
8:00 PM63 °FSunny.1 mph76%30.16 "Hg31 mi
7:00 PM67 °FSunny.1 mph64%30.15 "Hg28 mi
6:00 PM67 °FScattered clouds.No wind64%30.14 "Hg31 mi
5:00 PM70 °FPassing clouds.1 mph61%30.12 "Hg31 mi
4:00 PM68 °FRain showers. Partly sunny.1 mph64%30.12 "Hg28 mi
3:00 PM74 °FScattered clouds.3 mph54%30.11 "Hg28 mi
2:00 PM72 °FPassing clouds.2 mph57%30.10 "Hg28 mi
1:00 PM69 °FPartly sunny.2 mph65%30.10 "Hg31 mi
12:00 PM70 °FScattered clouds.2 mph62%30.09 "Hg22 mi
11:00 AM68 °FSunny.2 mph67%30.09 "Hg25 mi
10:00 AM65 °FPassing clouds.2 mph74%30.09 "Hg22 mi
9:00 AM62 °FSunny.1 mph85%30.09 "Hg22 mi
8:00 AM58 °FSunny.1 mph97%30.09 "Hg16 mi
Weather by CustomWeather, © 2016

See weather overviewHow to use our weather pages